Weather History for Bryce Canyon, UT

Change the Weather History Date:

Monday, May 19, 2014

  Actual Average Record
Temperature  
Mean Temperature 50 °F -  
Max Temperature 70 °F 65 °F 81 °F (2008)
Min Temperature 32 °F 32 °F 15 °F (1977)
Degree Days  
Heating Degree Days 14    
Moisture  
Dew Point 17 °F    
Average Humidity 26    
Maximum Humidity 54    
Minimum Humidity 13    
Precipitation  
Precipitation 0.00 in - - ()
Sea Level Pressure  
Sea Level Pressure 29.69 in    
Wind  
Wind Speed 11 mph (SSW)    
Max Wind Speed 24 mph    
Max Gust Speed 34 mph    
Visibility 10 miles    
Events      
Averages and records for this station are not official NWS values.
T = Trace of Precipitation, MM = Missing Value Source: NWS Daily Summary

Daily Weather History Graph

Daily Weather History Graph

Search for Another Location

Airport:

Trip Planner

Search our weather history database for the weather conditions in past years. The results will help you decide how hot, cold, wet, or windy it might be!

Date:

Astronomy

May. 19, 2014 Rise Set
Actual Time 6:15 AM MDT 8:34 PM MDT
Civil Twilight 5:46 AM MDT 9:04 PM MDT
Nautical Twilight 5:09 AM MDT 9:41 PM MDT
Astronomical Twilight 4:29 AM MDT 10:21 PM MDT
Moon 12:26 AM MDT (5/19) 11:15 AM MDT (5/19)
Length of Visible Light 15h 18m
Length of Day
14h 19m
Waning Gibbous, 70% of the Moon is Illuminated
May 19
Waning Gibbous
May 21
Last Quarter
May 28
New
Jun 5
First Quarter
Jun 12
Full

Hourly Weather History & Observations

Time (MDT) Temp. Windchill Dew Point Humidity Pressure Visibility Wind Dir Wind Speed Gust Speed Precip Events Conditions
12:53 AM 53.1 °F - 17.1 °F 24% 29.62 in 10.0 mi South 11.5 mph - N/A   Clear
1:53 AM 48.9 °F - 17.1 °F 28% 29.62 in 10.0 mi South 5.8 mph - N/A   Clear
2:53 AM 50.0 °F - 19.0 °F 29% 29.59 in 10.0 mi South 8.1 mph - N/A   Clear
3:53 AM 32.0 °F 25.6 °F 17.1 °F 54% 29.65 in 10.0 mi SSW 6.9 mph - N/A   Clear
4:53 AM 36.0 °F - 18.0 °F 48% 29.65 in 10.0 mi Calm Calm - N/A   Clear
5:53 AM 39.0 °F 36.8 °F 19.0 °F 45% 29.65 in 10.0 mi Variable 3.5 mph - N/A   Clear
8:53 AM 55.9 °F - 21.0 °F 26% 29.68 in 10.0 mi WSW 13.8 mph 23.0 mph N/A   Clear
9:53 AM 57.9 °F - 19.0 °F 22% 29.70 in 10.0 mi WSW 12.7 mph - N/A   Clear
10:53 AM 62.1 °F - 21.0 °F 21% 29.66 in 10.0 mi SSW 5.8 mph - N/A   Clear
12:53 PM 66.9 °F - 19.0 °F 16% 29.65 in 10.0 mi West 19.6 mph 25.3 mph N/A   Clear
1:53 PM 69.1 °F - 19.9 °F 15% 29.65 in 10.0 mi South 17.3 mph 28.8 mph N/A   Clear
2:07 PM 68.0 °F - 19.0 °F 15% 29.98 in 10.0 mi South 23.0 mph 28.8 mph N/A   Clear
2:53 PM 68.0 °F - 16.0 °F 14% 29.65 in 10.0 mi SSW 16.1 mph 27.6 mph N/A   Clear
3:53 PM 69.1 °F - 16.0 °F 13% 29.70 in 10.0 mi SW 24.2 mph 32.2 mph N/A   Clear
4:53 PM 68.0 °F - 17.1 °F 14% 29.68 in 10.0 mi SSW 18.4 mph 28.8 mph N/A   Clear
5:53 PM 66.0 °F - 14.0 °F 13% 29.68 in 10.0 mi SSW 21.9 mph 34.5 mph N/A   Clear
6:53 PM 64.0 °F - 12.9 °F 14% 29.70 in 10.0 mi WSW 24.2 mph 33.4 mph N/A   Clear
7:53 PM 60.1 °F - 14.0 °F 16% 29.67 in 10.0 mi SW 16.1 mph - N/A   Clear
8:53 PM 52.0 °F - 14.0 °F 22% 29.71 in 10.0 mi SSW 9.2 mph - N/A   Clear
9:53 PM 48.0 °F - 14.0 °F 26% 29.73 in 10.0 mi SSE 5.8 mph - N/A   Clear
10:53 PM 37.9 °F 32.1 °F 17.1 °F 43% 29.76 in 10.0 mi SW 8.1 mph - N/A   Clear
11:53 PM 34.0 °F 28.8 °F 17.1 °F 50% 29.76 in 10.0 mi WSW 5.8 mph - N/A   Clear